EDT,Max TemperatureF,Mean TemperatureF,Min TemperatureF,Max Dew PointF,MeanDew PointF,Min DewpointF,Max Humidity, Mean Humidity, Min Humidity, Max Sea Level PressureIn, Mean Sea Level PressureIn, Min Sea Level PressureIn, Max VisibilityMiles, Mean VisibilityMiles, Min VisibilityMiles, Max Wind SpeedMPH, Mean Wind SpeedMPH, Max Gust SpeedMPH,PrecipitationIn, CloudCover, Events, WindDirDegrees
2014-6-1,73,56,39,46,41,34,81,51,27,30.35,30.31,30.27,10,10,10,9,5,17,0.00,0,,10
2014-6-2,78,62,46,52,45,39,81,52,30,30.27,30.16,30.05,10,10,10,12,5,18,0.00,0,,214
2014-6-3,78,64,50,59,51,39,87,65,47,30.06,29.98,29.92,10,10,10,10,3,20,0.00,1,,150
2014-6-4,68,60,51,57,53,41,88,78,55,29.92,29.85,29.79,10,9,1,8,3,,0.16,8,,111
2014-6-5,60,56,51,57,55,46,94,87,82,29.81,29.73,29.66,10,5,0,14,3,21,0.84,7,,6
2014-6-6,71,61,51,54,51,48,88,69,50,29.91,29.81,29.73,10,10,2,13,6,21,0.00,5,,293
2014-6-7,80,68,55,57,52,48,88,61,39,29.98,29.94,29.91,10,10,10,10,7,16,0.00,1,,306
2014-6-8,82,68,55,57,53,50,88,57,35,29.98,29.94,29.90,10,10,7,7,2,,0.00,1,,245
2014-6-9,73,65,57,57,54,50,88,68,49,30.03,29.99,29.94,10,10,6,7,3,,0.02,3,,218
2014-6-10,78,68,59,66,60,54,94,82,61,30.12,30.01,29.97,10,8,2,17,3,21,0.32,7,,171
2014-6-11,69,62,55,54,51,48,88,70,53,30.19,30.15,30.11,10,10,10,14,7,20,0.00,5,,72
2014-6-12,66,60,55,61,54,48,88,78,72,30.17,30.12,30.07,10,10,2,12,4,,0.00,7,,106
2014-6-13,69,64,60,64,61,57,94,88,82,30.06,29.92,29.79,10,5,0,12,6,,1.76,8,,62
2014-6-14,66,62,57,61,57,46,88,86,63,29.94,29.86,29.82,10,7,0,14,4,21,0.01,6,,304
2014-6-15,64,,64,52,52,52,64,64,64,30.08,30.00,29.93,10,10,10,16,9,22,0.00,1,,315
2014-6-16,75,73,71,52,49,46,44,42,38,30.17,30.11,30.07,10,10,10,8,5,,0.00,1,,289
2014-6-17,82,73,64,68,65,61,88,70,61,30.10,30.03,29.91,10,9,3,8,5,,0.02,2,,193
2014-6-18,82,73,64,64,62,59,88,67,51,29.99,29.87,29.79,10,9,2,22,7,28,0.00,2,,272
2014-6-19,80,68,57,63,55,37,88,62,38,30.01,29.97,29.93,10,10,9,12,6,16,0.02,2,,307
2014-6-20,73,60,48,48,42,37,82,49,29,30.00,29.96,29.92,10,10,10,15,7,23,0.00,0,,322
2014-6-21,73,58,44,48,45,39,87,58,38,30.00,29.96,29.91,10,10,9,9,3,16,0.00,2,,316
2014-6-22,73,60,48,54,48,43,88,61,40,30.06,30.00,29.96,10,10,10,8,2,,0.00,3,,36
2014-6-23,77,62,48,57,49,45,87,62,41,30.21,30.15,30.06,10,10,8,8,2,,0.00,0,,158
2014-6-24,80,66,51,59,53,48,88,63,45,30.21,30.15,30.06,10,10,10,10,5,16,0.00,1,,200
2014-6-25,82,72,62,68,62,54,88,71,58,30.06,29.98,29.91,10,10,10,10,6,22,0.00,4,,213
2014-6-26,82,71,59,70,63,54,88,76,58,30.03,29.89,29.83,10,10,4,16,6,21,0.02,7,,18
2014-6-27,77,64,51,55,49,43,88,60,34,30.24,30.14,30.03,10,10,10,14,6,20,0.00,0,,28
2014-6-28,82,66,51,59,52,45,88,63,35,30.31,30.27,30.24,10,10,10,9,2,16,0.00,0,,133
2014-6-29,82,68,53,61,54,48,88,62,35,30.30,30.23,30.16,10,10,10,8,4,,0.00,0,,205
2014-6-30,82,71,60,63,59,54,88,66,48,30.16,30.06,29.99,10,10,10,12,5,18,0.00,0,,220